| time (UTC) | temp C | wind direction | speed KPH | gust KPH | rain 1hr cm | rain 24hr cm | rain mn cm | humidity % | barometer mb |
| 20260509040112 | 12 | 0 | 0.0 | 3.2 | 0.00 | 0.00 | 0.00 | 72 | 1003.1 |
| 20260509034619 | 12 | 0 | 1.6 | 6.4 | 0.00 | 0.00 | 0.00 | 70 | 1003.0 |
| 20260509033055 | 12 | 0 | 0.0 | 4.8 | 0.00 | 0.00 | 0.00 | 70 | 1003.0 |
| 20260509031553 | 12 | 0 | 0.0 | 3.2 | 0.00 | 0.00 | 0.00 | 68 | 1003.0 |
| 20260509030109 | 12 | 0 | 0.0 | 1.6 | 0.00 | 0.00 | 0.00 | 66 | 1003.3 |
| 20260509024552 | 12 | 0 | 0.0 | 1.6 | 0.00 | 0.00 | 0.00 | 64 | 1003.4 |
| 20260509023054 | 12 | 96 | 0.0 | 4.8 | 0.00 | 0.00 | 0.00 | 62 | 1003.5 |
| 20260509021556 | 13 | 0 | 0.0 | 3.2 | 0.00 | 0.00 | 0.00 | 60 | 1003.5 |
| 20260509020052 | 13 | 71 | 0.0 | 1.6 | 0.00 | 0.00 | 0.00 | 59 | 1003.5 |
| 20260509014551 | 13 | 0 | 0.0 | 3.2 | 0.00 | 0.00 | 0.00 | 56 | 1003.7 |
| 20260509013109 | 14 | 0 | 1.6 | 6.4 | 0.00 | 0.00 | 0.00 | 53 | 1003.7 |
| 20260509011608 | 15 | 103 | 1.6 | 8.0 | 0.00 | 0.00 | 0.00 | 51 | 1003.8 |
| 20260509010053 | 16 | 91 | 6.4 | 14.5 | 0.00 | 0.00 | 0.00 | 44 | 1003.8 |
| 20260509004554 | 18 | 0 | 0.0 | 3.2 | 0.00 | 0.00 | 0.00 | 28 | 1003.7 |
| 20260509003113 | 18 | 246 | 1.6 | 6.4 | 0.00 | 0.00 | 0.00 | 26 | 1003.7 |
| 20260509001552 | 18 | 260 | 3.2 | 8.0 | 0.00 | 0.00 | 0.00 | 27 | 1003.7 |
| 20260509000111 | 19 | 240 | 3.2 | 12.9 | 0.00 | 0.00 | 0.00 | 29 | 1003.8 |
| 20260508234553 | 19 | 243 | 1.6 | 8.0 | 0.00 | 0.00 | 0.00 | 29 | 1003.8 |
| 20260508233054 | 19 | 243 | 8.0 | 17.7 | 0.00 | 0.00 | 0.00 | 25 | 1004.0 |
| 20260508231555 | 20 | 284 | 3.2 | 11.3 | 0.00 | 0.00 | 0.00 | 27 | 1004.2 |
| 20260508230055 | 19 | 240 | 6.4 | 14.5 | 0.00 | 0.00 | 0.00 | 25 | 1004.3 |
| 20260508224604 | 19 | 258 | 9.7 | 17.7 | 0.00 | 0.00 | 0.00 | 24 | 1004.4 |
| 20260508223100 | 19 | 253 | 6.4 | 14.5 | 0.00 | 0.00 | 0.00 | 26 | 1004.4 |
| 20260508221601 | 19 | 298 | 8.0 | 22.5 | 0.00 | 0.00 | 0.00 | 24 | 1004.6 |
| 20260508220059 | 19 | 276 | 4.8 | 16.1 | 0.00 | 0.00 | 0.00 | 25 | 1004.7 |
| 20260508214600 | 19 | 290 | 3.2 | 14.5 | 0.00 | 0.00 | 0.00 | 26 | 1004.7 |
| 20260508213113 | 19 | 0 | 8.0 | 14.5 | 0.00 | 0.00 | 0.00 | 23 | 1004.8 |
| 20260508211600 | 19 | 271 | 4.8 | 11.3 | 0.00 | 0.00 | 0.00 | 24 | 1004.9 |
| 20260508210057 | 18 | 249 | 9.7 | 20.9 | 0.00 | 0.00 | 0.00 | 23 | 1005.1 |
| 20260508204603 | 19 | 262 | 14.5 | 29.0 | 0.00 | 0.00 | 0.00 | 22 | 1005.4 |
| 20260508203101 | 19 | 245 | 8.0 | 14.5 | 0.00 | 0.00 | 0.00 | 24 | 1005.6 |
| 20260508201613 | 19 | 225 | 12.9 | 19.3 | 0.00 | 0.00 | 0.00 | 21 | 1005.7 |
| 20260508200109 | 19 | 271 | 3.2 | 19.3 | 0.00 | 0.00 | 0.00 | 20 | 1005.9 |
| 20260508194600 | 19 | 16 | 4.8 | 9.7 | 0.00 | 0.00 | 0.00 | 23 | 1006.1 |
| 20260508193106 | 18 | 221 | 3.2 | 20.9 | 0.00 | 0.00 | 0.00 | 22 | 1006.4 |
| 20260508191555 | 19 | 214 | 3.2 | 12.9 | 0.00 | 0.00 | 0.00 | 23 | 1006.5 |
| 20260508190057 | 18 | 233 | 4.8 | 11.3 | 0.00 | 0.00 | 0.00 | 24 | 1006.8 |
| 20260508184604 | 19 | 219 | 1.6 | 8.0 | 0.00 | 0.00 | 0.00 | 26 | 1006.9 |
| 20260508183105 | 18 | 72 | 4.8 | 16.1 | 0.00 | 0.00 | 0.00 | 21 | 1007.1 |
| 20260508181554 | 19 | 233 | 0.0 | 9.7 | 0.00 | 0.00 | 0.00 | 25 | 1007.3 |
| 20260508180059 | 18 | 89 | 0.0 | 6.4 | 0.00 | 0.00 | 0.00 | 23 | 1007.4 |
| 20260508174605 | 18 | 271 | 1.6 | 12.9 | 0.00 | 0.00 | 0.00 | 28 | 1007.6 |
| 20260508173054 | 17 | 63 | 4.8 | 11.3 | 0.00 | 0.00 | 0.00 | 23 | 1007.9 |
| 20260508171558 | 17 | 235 | 6.4 | 12.9 | 0.00 | 0.00 | 0.00 | 22 | 1008.2 |
| 20260508170056 | 17 | 228 | 4.8 | 9.7 | 0.00 | 0.00 | 0.00 | 24 | 1008.5 |
| 20260508164558 | 17 | 263 | 0.0 | 4.8 | 0.00 | 0.00 | 0.00 | 26 | 1008.7 |
| 20260508163114 | 16 | 251 | 4.8 | 11.3 | 0.00 | 0.00 | 0.00 | 26 | 1008.9 |
| 20260508161556 | 16 | 231 | 3.2 | 9.7 | 0.00 | 0.00 | 0.00 | 25 | 1009.1 |
| 20260508160052 | 16 | 242 | 3.2 | 6.4 | 0.00 | 0.00 | 0.00 | 25 | 1009.1 |
| 20260508154558 | 16 | 248 | 1.6 | 11.3 | 0.00 | 0.00 | 0.00 | 27 | 1009.5 |
| 20260508153057 | 16 | 162 | 1.6 | 9.7 | 0.00 | 0.00 | 0.00 | 28 | 1009.4 |
| 20260508151554 | 16 | 167 | 0.0 | 4.8 | 0.00 | 0.00 | 0.00 | 29 | 1009.4 |
| 20260508150052 | 15 | 118 | 3.2 | 8.0 | 0.00 | 0.00 | 0.00 | 32 | 1009.5 |
| 20260508144551 | 15 | 249 | 0.0 | 4.8 | 0.00 | 0.00 | 0.00 | 33 | 1009.6 |
| 20260508143054 | 14 | 266 | 1.6 | 6.4 | 0.00 | 0.00 | 0.00 | 41 | 1009.4 |
| 20260508141555 | 13 | 99 | 1.6 | 9.7 | 0.00 | 0.00 | 0.00 | 51 | 1009.6 |
| 20260508140054 | 12 | 88 | 0.0 | 4.8 | 0.00 | 0.00 | 0.00 | 58 | 1009.7 |
| 20260508134551 | 11 | 69 | 1.6 | 3.2 | 0.00 | 0.00 | 0.00 | 65 | 1009.7 |
| 20260508133059 | 10 | 96 | 0.0 | 3.2 | 0.00 | 0.00 | 0.00 | 74 | 1010.1 |
| 20260508131556 | 8 | 243 | 0.0 | 3.2 | 0.00 | 0.00 | 0.00 | 79 | 1010.1 |
| 20260508130107 | 6 | 0 | 0.0 | 3.2 | 0.00 | 0.00 | 0.00 | 94 | 1010.2 |
| 20260508124554 | 5 | 0 | 0.0 | 1.6 | 0.00 | 0.00 | 0.00 | 95 | 1010.2 |
| 20260508123056 | 3 | 0 | 0.0 | 0.0 | 0.00 | 0.00 | 0.00 | 95 | 1010.2 |
| 20260508121551 | 2 | 0 | 0.0 | 0.0 | 0.00 | 0.00 | 0.00 | 94 | 1010.2 |
| 20260508120056 | 1 | 0 | 0.0 | 0.0 | 0.00 | 0.00 | 0.00 | 94 | 1010.1 |
| 20260508114551 | 0 | 0 | 0.0 | 0.0 | 0.00 | 0.00 | 0.00 | 94 | 1010.0 |
| 20260508113107 | 0 | 0 | 0.0 | 0.0 | 0.00 | 0.00 | 0.00 | 94 | 1010.1 |
| 20260508111553 | 0 | 0 | 0.0 | 0.0 | 0.00 | 0.00 | 0.00 | 94 | 1010.0 |
| 20260508110118 | 0 | 0 | 0.0 | 0.0 | 0.00 | 0.00 | 0.00 | 94 | 1010.0 |
| 20260508104557 | 0 | 0 | 0.0 | 0.0 | 0.00 | 0.00 | 0.00 | 93 | 1010.0 |
| 20260508103057 | 0 | 0 | 0.0 | 0.0 | 0.00 | 0.00 | 0.00 | 94 | 1010.0 |
| 20260508101556 | 0 | 0 | 0.0 | 0.0 | 0.00 | 0.00 | 0.00 | 93 | 1010.0 |
| 20260508100055 | 0 | 0 | 0.0 | 0.0 | 0.00 | 0.00 | 0.00 | 93 | 1010.0 |
| 20260508094600 | 0 | 0 | 0.0 | 0.0 | 0.00 | 0.00 | 0.00 | 93 | 1010.2 |
| 20260508093102 | 0 | 0 | 0.0 | 0.0 | 0.00 | 0.00 | 0.00 | 93 | 1010.2 |
| 20260508091557 | 0 | 0 | 0.0 | 0.0 | 0.00 | 0.00 | 0.00 | 92 | 1010.3 |
| 20260508090108 | 0 | 0 | 0.0 | 0.0 | 0.00 | 0.00 | 0.00 | 93 | 1010.4 |
| 20260508084552 | 0 | 0 | 0.0 | 1.6 | 0.00 | 0.00 | 0.00 | 93 | 1010.5 |
| 20260508083055 | 0 | 277 | 0.0 | 0.0 | 0.00 | 0.00 | 0.00 | 92 | 1010.5 |
| 20260508081559 | 0 | 0 | 0.0 | 0.0 | 0.00 | 0.00 | 0.00 | 92 | 1010.4 |
| 20260508080054 | 0 | 0 | 0.0 | 0.0 | 0.00 | 0.00 | 0.00 | 91 | 1010.5 |
| 20260508074555 | 0 | 277 | 1.6 | 1.6 | 0.00 | 0.00 | 0.00 | 90 | 1010.6 |
| 20260508073058 | 1 | 271 | 0.0 | 1.6 | 0.00 | 0.00 | 0.00 | 92 | 1010.7 |
| 20260508071554 | 1 | 277 | 0.0 | 1.6 | 0.00 | 0.00 | 0.00 | 90 | 1010.8 |
| 20260508070054 | 1 | 0 | 0.0 | 1.6 | 0.00 | 0.00 | 0.00 | 89 | 1010.8 |
| 20260508064556 | 1 | 264 | 0.0 | 1.6 | 0.00 | 0.00 | 0.00 | 87 | 1011.0 |
| 20260508063055 | 1 | 0 | 0.0 | 1.6 | 0.00 | 0.00 | 0.00 | 87 | 1011.1 |
| 20260508061606 | 1 | 0 | 0.0 | 1.6 | 0.00 | 0.00 | 0.00 | 86 | 1011.3 |
| 20260508060057 | 2 | 263 | 0.0 | 1.6 | 0.00 | 0.00 | 0.00 | 86 | 1011.5 |
| 20260508054635 | 2 | 0 | 0.0 | 1.6 | 0.00 | 0.00 | 0.00 | 84 | 1011.3 |
| 20260508053052 | 2 | 0 | 0.0 | 1.6 | 0.00 | 0.00 | 0.00 | 83 | 1011.4 |
| 20260508051552 | 2 | 0 | 0.0 | 1.6 | 0.00 | 0.00 | 0.00 | 83 | 1011.4 |
| 20260508050057 | 2 | 0 | 0.0 | 1.6 | 0.00 | 0.00 | 0.00 | 83 | 1011.3 |
| 20260508044559 | 3 | 0 | 0.0 | 1.6 | 0.00 | 0.00 | 0.00 | 81 | 1011.2 |
| 20260508043052 | 3 | 0 | 0.0 | 0.0 | 0.00 | 0.00 | 0.00 | 80 | 1011.0 |
| 20260508041559 | 3 | 0 | 0.0 | 0.0 | 0.00 | 0.00 | 0.00 | 80 | 1010.9 |